Tracking 25620 objects as of 18-May-2022
HD Live streaming from Space Station
objects crossing your sky now

STARLINK-1398

Track STARLINK-1398 now!
10-day predictions
STARLINK-1398 is classified as:


NORAD ID: 45699
Int'l Code: 2020-035AU
Perigee: 553.3 km
Apogee: 555.4 km
Inclination: 53.1 °
Period: 95.6 minutes
Semi major axis: 6925 km
RCS: Unknown
Launch date: June 4, 2020
Source: United States (US)
Launch site: AIR FORCE EASTERN TEST RANGE (AFETR)
aabbcc
Your satellite tracking list
Your tracking list is empty




NASA's NSSDC Master Catalog

Two Line Element Set (TLE):
1 45699U 20035AU  22138.48679012 -.00000351  00000-0 -46608-5 0  9996
2 45699  53.0552 161.9826 0001538  65.1535 294.9614 15.06401294109467
Source of the keplerian elements: AFSPC